Погода в Усугли

Погода в Усугли : погода сейчас, прогноз погоды и архив. Всё, что Вы хотите узнать о погоде в Усугли!

Хотите узнать прогноз погоды в Усугли? Тогда Вам сюда: Погода в Усугли

Поиск расширенной информации на нашем сайте:

Другие новости

Новости СМИ2

Главная страница сайта

Новости сайта

03.07.2017

Напоминаем, что на нашем специализированном сайте Метеоцентр.Азия вы можете получить высокодетализированные автоматические прогнозы погоды по пунктам России, СНГ и мира в авиационном формате (включающие направление и скорость ветра, видимость, явления погоды, количество и форму облачности, нижнюю и верхнюю границу облачности).


Погода в Усугли - сегодня

Время (UTC), дата Ветер
(°,м/с) 
Видим.   Явления Облачность Т
(°С)
Тd
(°С)
f(%) Тe
(°С)
Pmin
(гПа)
dP
(гПа)
Po
(мм)
O2
(г/м3)
Тmin Tmax R s Состояние
почвы
12 16.10.18 тихо ()   н/о    ясно 
-4.4 -7.4 80 -4  1029.3  0.8  712  292    +12.1       
15 16.10.18 тихо ()   н/о    ясно 
-7.4 -8.8 90 -7  1030.6  0.4  712  296           
18 16.10.18 тихо ()   н/о    ясно 
-8.7 -9.7 92 -9  1030.6  -0.4  712  297           
21 16.10.18 тихо ()   н/о    ясно 
-9.8 -10.9 92 -10  1030.8  -0.2  711  298           
03 17.10.18 тихо ()   20000 м    ясно 
+3.6 -5.8 50 +4  1025.3  -1.3  711  283           
06 17.10.18 210 (ЮЗ) 20000 м    1/0 верхняя 
[Ci fib]
+14.4 -8.8 19 +15  1019.6  -2.6  709  272           
09 17.10.18 150 (ЮВ) 20000 м    1/0 верхняя 
[Ci fib]
+11.4 -8.7 24 +13  1019.7  -0.6  708  275           
12 17.10.18 тихо ()   н/о    ясно 
-2 -7.1 68 -2  1025.3  1.6  709  289    +15.2       
15 17.10.18 080 (В) н/о    1/0 верхняя 
[Ci fib]
-5.1 -7.7 82 -5  1026.5  0.2  710  292           
18 17.10.18 150 (ЮВ) н/о    ясно 
-6.5 -8.2 88 -6  1026.9  710  294           
21 17.10.18 тихо ()   н/о    ясно 
-7.4 -8.7 90 -7  1027.2  710  295           
03 18.10.18 340 (С) 20000 м    4/0 верхняя 
[Ci fib]
+7.6 -4 44 +9  1021.5  0.1  709  278           
06 18.10.18 210 (ЮЗ) 20000 м    8/0 средняя, верхняя 
[Ac lent|Ci ing]
+16 -4.7 24 +16  1016.6  -2.4  707  269           
09 18.10.18 230 (ЮЗ) 20000 м    10/0 средняя, верхняя 
[Ac lent|Cs]
+13 -5.1 28 +13  1017.4  707  272           
15 18.10.18 тихо ()   н/о    10/0 верхняя 
[Cs]
-2.2 -5.1 80 -2  1024  0.6  708  288           
18 18.10.18 150 (ЮВ) н/о    10/0 верхняя 
[Cs]
-4.7 -6.1 90 -4  1024.9  709  291           
21 18.10.18 тихо ()   н/о    10/0 верхняя 
[Cs]
-6.4 -7.3 93 -6  1025.1  -0.3  708  293           
03 19.10.18 300 (СЗ) 20000 м    10/0 верхняя 
[Cs]
+11 -4.8 33 +12  1018.4  -1.3  707  274           
09 19.10.18 260 (З) 3{10}  20000 м    8/0 средняя, верхняя 
[Ac trans|Ci ing]
+14.3 -10.3 17 +14  1015.3  -0.4  706  271           
15 19.10.18 тихо ()   н/о    н/о 
-4.3 -7.9 76 -4  1022  0.5  707  290           
18 19.10.18 тихо ()   н/о    ясно 
-7.7 -9.3 88 -8  1023.2  0.1  707  294           
21 19.10.18 060 (СВ) н/о    ясно 
-9.1 -10.4 90 -9  1023.2  -0.4  706  295           
00 20.10.18 тихо ()   20000 м    ясно 
-7.4 -8.9 89 -7  1022.5  -0.4  706  293  -10.1         
03 20.10.18 050 (СВ) 20000 м    ясно 
+3.2 -7.6 45 +3  1017.2  -1.9  705  281           
06 20.10.18 060 (СВ) 20000 м    3/0 средняя 
[Ac trans]
+11.5 -7.6 25 +11  1011.8  -2.8  703  272           
Время (UTC), дата Ветер
(°,м/с) 
Видим.   Явления Облачность Т
(°С)
Тd
(°С)
f(%) Тe
(°С)
Pmin
(гПа)
dP
(гПа)
Po
(мм)
O2
(г/м3)
Тmin Tmax R s Состояние
почвы

Для получения пояснительной информации подведите курсор к названию столбца.

ПОГОДА в Усугли - архив

Всё, что Вы хотите узнать о погоде в Усугли - удобно и подробно!

Выберите нужную дату (начиная с 1 января 2015* года) и нажмите кнопку "Найти".
Будут отображены архивные сводки погоды по пункту Усугли, начиная с указанной даты.


Отображать данные в формате CSV (для использования в таблицах Excel)


Внимание! Наш архив погоды предназначен исключительно для личного некоммерческого использования в познавательных целях. Если Вам необходимы официальные справки о состоянии погоды (для производственных, юридических, коммерческих и т.п. целей), обращайтесь в органы Росгидромета.

*Примечание: данная дата относится к архиву по метеостанциям СССР (Россия, СНГ, Балтия).
Архив по метеостанциям Зарубежной Европы и Азии (кроме Китая) хранится 10 дней, по другим регионам земного шара (Китай, Африка, Америка, Австралия, Океания) - 1 день.

Усугли - район местоположения метеостанции


Название, широта, долгота, высота метеостанции:
Усугли 52.6°ш. 115.2°д. 646 м над ур. моря [Российская Федерация]

Дополнительная информация

В oтличие oт бoльшинства пoгoдных сайтoв мы публикуем пoдрoбную метеoинфoрмацию в детальнoм прoфессиoнальнoм фoрмате.

Характеристики температуры и влажнoсти вoздуха измеряются на высoте 2 м в тени вдали oт зданий и деревьев.
Скoрoсть ветра измеряется на высoте 10 м (на урoвне рoста челoвека скoрoсть ветра ниже в 1.5-2 раза). Если метеoстанция нахoдится в гoрoде или в лесу, тo скoрoсть ветра занижена на 2-4 м/с пo сравнению с oткрытым местoм. Скoрoсть ветра над акватoриями крупных рек и oзёр, а также на вершинах хoлмoв на 2-5 м/с выше, чем в oбычных услoвиях.
Атмoсфернoе давление в разных тoчках местнoсти мoжет значительнo oтличаться oт давления на метеoстанции, в зависимoсти oт услoвий рельефа (при пoдъёме на 10 м давление пoнижается примернo на 1 мм рт.ст.).